Content
SEND FEEDBACK

Daily
Averages
Monthly
Summary
Mexico

BUENA VISTA, QUINTANA ROO


Home > North America > Mexico > Quintana Roo
Elevation: 66 feet     Latitude: 18 55N     Longitude: 088 17W

WEATHER
 
SELECT A DAY
Number of Records: 126,401;   Date Range: 1/1/95 - 12/26/14
 
SHARE

PRINT THIS DATA

[ ← Previous Day ]
WEATHER ALMANAC - NOVEMBER 1, 2013
[ Next Day → ]
[ °C ]   °F
Weather ElementAverageHighLow
Temperature84.3 °F90 °F (2:50 pm)78 °F (5:50 am)
Dewpoint75.3 °F79 °F (8:50 am)69.8 °F (6:03 am)
Humidity73.5 %98 % (5:50 am)59 % (2:50 pm)
Barometer29.87 in29.94 in (8:50 am)29.80 in (3:43 pm)
Wind Speed7.7 mph17.3 mph (3:43 pm)
Weather ElementAverage
Visibility6.6 mi
Wind DirectionE (87 °)

Weather ElementTotal
Precipitation---
Cooling Degree Days19 (Base 65)
Growing Degree Days34 (Base 50)
Averaged from 23 records on November 1, 2013
WEATHER CONDITIONS BREAKOUT
WIND DIRECTION BREAKOUT
WEATHER BY HOUR - NOVEMBER 1, 2013
[ °C ]   °F
Local TimeTemperatureDewpointHumidityBarometerVisibilityWind DirectionWind SpeedGust SpeedPrecipitationEventsConditions
5:50 AM78.0 °F78.0 °F98 %29.88 in6.0 miESE (110°)2.2 mphPartly Cloudy
6:03 AM80.6 °F69.8 °F70 %29.88 in7.0 miEast (100°)5.8 mphPartly Cloudy
6:45 AM82.4 °F71.6 °F70 %29.88 in7.0 miCalmClear
7:45 AM84.2 °F73.4 °F70 %29.89 in7.0 miCalmPartly Cloudy
8:40 AM84.2 °F73.4 °F70 %29.92 in7.0 miCalmPartly Cloudy
8:50 AM87.0 °F79.0 °F71 %29.94 in6.0 miEast (90°)6.7 mphScattered Clouds
9:42 AM86.0 °F75.2 °F70 %29.92 in7.0 miEast (90°)11.5 mphScattered Clouds
10:50 AM86.0 °F75.2 °F70 %29.90 in7.0 miEast (100°)11.5 mphScattered Clouds
11:44 AM86.0 °F75.2 °F70 %29.89 in7.0 miEast (100°)11.5 mphScattered Clouds
12:00 PM6.0 miEast (90°)6.7 mph
12:42 PM86.0 °F75.2 °F70 %29.85 in7.0 miESE (120°)11.5 mphScattered Clouds
1:42 PM86.0 °F75.2 °F70 %29.83 in7.0 miESE (120°)11.5 mphScattered Clouds
2:43 PM86.0 °F75.2 °F70 %29.82 in7.0 miESE (120°)13.8 mphScattered Clouds
2:50 PM90.0 °F77.0 °F59 %29.83 in6.0 miEast (90°)6.7 mphScattered Clouds
3:43 PM86.0 °F75.2 °F70 %29.80 in7.0 miESE (120°)17.3 mphScattered Clouds
4:43 PM86.0 °F75.2 °F70 %29.82 in7.0 miESE (120°)11.5 mphScattered Clouds
5:43 PM86.0 °F75.2 °F70 %29.83 in7.0 miESE (120°)11.5 mphScattered Clouds
5:45 PM83.0 °F78.0 °F82 %29.85 in6.0 miEast (90°)4.5 mphScattered Clouds
6:43 PM84.2 °F75.2 °F74 %29.84 in7.0 miESE (120°)11.5 mphScattered Clouds
7:43 PM84.2 °F75.2 °F74 %29.88 in7.0 miESE (120°)11.5 mphScattered Clouds
8:43 PM80.6 °F75.2 °F84 %29.89 in7.0 miCalmScattered Clouds
8:45 PM82.0 °F76.0 °F79 %29.91 in5.0 miEast (90°)4.5 mphScattered Clouds
11:50 PM81.0 °F78.0 °F87 %29.89 in5.0 miEast (90°)4.5 mphScattered Clouds
Hourly data recorded from MMCM, located miles away from Buena Vista, Quintana Roo







STORIES FROM OUR PARTNERS